This demonstration page uses our WeatherBlox Daily Observations layout. Learn more.

Hourly Observations for May 1, 2019

Temp ( °F °C ) Dew Point ( °F °C ) Humidity (%) Winds ( mph kmh ) Pressure ( in mb ) Visibility ( mi km ) Precip ( " mm )
12:13 am 00:13 Cloudy with Mist and Fog 49 9.4 47 8.3 93 93 N 8 13 29.97 1015 5 8.04672 0.001 0.001
12:22 am 00:22 Cloudy with Mist and Fog 49 9.4 47 8.3 93 93 NNE 9 15 29.97 1015 5 8.04672 0.001 0.001
12:54 am 00:54 Cloudy with Mist and Fog 49 9.4 47 8.3 93 93 NNE 10 17 29.91 1013 6 9.656064 0.001 0.001
1:22 am 01:22 Cloudy 48 8.9 45 7.2 89 89 NNE 13 20 29.97 1015 10 16.09344 0 0
1:41 am 01:41 Cloudy 47 8.3 45 7.2 93 93 NNE 10 17 29.97 1015 10 16.09344 0 0
1:54 am 01:54 Cloudy 47 8.3 45 7.2 93 93 NNE 12 19 29.91 1013 10 16.09344 0 0
2:54 am 02:54 Cloudy 47 8.3 44 6.7 90 90 NNE 12 19 29.91 1013 10 16.09344 0 0
3:54 am 03:54 Cloudy 46 7.8 43 6.1 89 89 NNE 9 15 29.91 1013 10 16.09344 0 0
4:10 am 04:10 Cloudy 46 7.8 43 6.1 89 89 NNE 13 20 29.97 1015 10 16.09344 0 0
4:49 am 04:49 Cloudy 45 7 43 6 93 93 N 12 19 29.97 1015 10 16.09344 0 0
4:54 am 04:54 Cloudy 45 7.2 42 5.6 90 90 N 12 19 29.94 1014 10 16.09344 0 0
5:22 am 05:22 Cloudy 46 7.8 42 5.6 86 86 N 14 22 29.97 1015 10 16.09344 0 0
5:54 am 05:54 Cloudy 45 7.2 42 5.6 90 90 N 13 20 29.94 1014 10 16.09344 0 0
6:25 am 06:25 Cloudy 45 7.2 41 5 86 86 NNE 13 20 29.97 1015 10 16.09344 0 0
6:49 am 06:49 Cloudy 45 7 43 6 93 93 NNE 12 19 29.97 1015 10 16.09344 0 0
6:54 am 06:54 Cloudy 44 6.7 42 5.6 93 93 N 14 22 29.94 1014 10 16.09344 0 0
7:54 am 07:54 Cloudy 44 6.7 41 5 89 89 NNE 12 19 29.97 1015 10 16.09344 0 0
8:54 am 08:54 Cloudy 45 7.2 41 5 86 86 NNE 8 13 30 1016 10 16.09344 0 0
9:04 am 09:04 Cloudy 45 7.2 41 5 86 86 NNE 7 11 30.06 1018 10 16.09344 0 0
9:54 am 09:54 Cloudy 46 7.8 42 5.6 86 86 N 10 17 30 1016 10 16.09344 0 0
10:34 am 10:34 Cloudy 47 8.3 41 5 80 80 ENE 9 15 30.03 1017 10 16.09344 0 0
10:54 am 10:54 Cloudy 48 8.9 42 5.6 80 80 ENE 13 20 30 1016 10 16.09344 0 0
11:54 am 11:54 Cloudy 48 8.9 42 5.6 80 80 N 9 15 30.03 1017 10 16.09344 0 0
12:54 pm 12:54 Cloudy 48 8.9 42 5.6 80 80 N 7 11 30.03 1017 10 16.09344 0 0
1:54 pm 13:54 Cloudy 50 10 42 5.6 74 74 NNE 9 15 30 1016 10 16.09344 0 0
2:15 pm 14:15 Cloudy 51 10.6 43 6.1 74 74 NE 10 17 30 1016 10 16.09344 0 0
2:54 pm 14:54 Cloudy 51 10.6 43 6.1 74 74 N 9 15 30 1016 10 16.09344 0 0
3:54 pm 15:54 Cloudy 51 10.6 42 5.6 71 71 N 5 7 30.03 1017 10 16.09344 0 0
4:38 pm 16:38 Cloudy 50 10 42 5.6 74 74 NNW 8 13 30.09 1019 10 16.09344 0 0
4:54 pm 16:54 Cloudy 50 10 42 5.6 74 74 NW 9 15 30.06 1018 10 16.09344 0 0
5:10 pm 17:10 Cloudy 50 10 42 5.6 74 74 N 12 19 30.09 1019 10 16.09344 0 0
5:54 pm 17:54 Cloudy 50 10 42 5.6 74 74 N 12 19 30.06 1018 10 16.09344 0 0
6:54 pm 18:54 Cloudy 50 10 42 5.6 74 74 N 12 19 30.06 1018 10 16.09344 0 0
7:34 pm 19:34 Cloudy 49 9.4 41 5 74 74 N 9 15 30.12 1020 10 16.09344 0 0
7:54 pm 19:54 Cloudy 49 9.4 41 5 74 74 N 10 17 30.09 1019 10 16.09344 0 0
8:54 pm 20:54 Cloudy 48 8.9 41 5 77 77 N 9 15 30.12 1020 10 16.09344 0 0
9:39 pm 21:39 Cloudy 47 8.3 41 5 80 80 N 7 11 30.15 1021 10 16.09344 0 0
9:54 pm 21:54 Cloudy 47 8.3 41 5 80 80 N 7 11 30.12 1020 10 16.09344 0 0
10:23 pm 22:23 Cloudy 48 8.9 41 5 77 77 NNW 9 15 30.15 1021 10 16.09344 0 0
10:54 pm 22:54 Cloudy 48 8.9 41 5 77 77 NNW 9 15 30.12 1020 10 16.09344 0 0
11:54 pm 23:54 Cloudy 47 8.3 41 5 80 80 NW 9 15 30.18 1022 10 16.09344 0 0

Powered by AerisWeather